Home   Weather   St. Louis   Past weeks

Flag for USA Past Weather in St. Louis, Missouri, USA — Yesterday and Last 2 Weeks

Now
63 °F

Mostly cloudy.


Feels Like: 63 °F
Forecast: 59 / 71 °F
Wind: 6 mph from Northwest

Location: Lambert-St. Louis International Airport

Current Time: Oct 1, 2016 at 8:59:58 AM

Latest Report: Oct 1, 2016 at 7:51 AM


Visibility: 7 mi

Pressure: 30.04 "Hg

Humidity: 87%

Dew Point: 59 °F

Location of St. LouisLocation

Past Weather in St. Louis — Graph

°F

St. Louis Temperature Yesterday

Maximum temperature yesterday: 68 °F (at 11:51 AM)
Minimum temperature yesterday: 62 °F (at 12:51 AM)
Average temperature yesterday: 64 °F

High & Low Weather Summary for the Past Weeks

 TemperatureHumidityPressure
High93 °F (Sep 20, 1:51 PM)93% (Sep 16, 10:51 PM)30.21 "Hg (Sep 16, 10:51 PM)
Low54 °F (Sep 29, 1:51 AM)22% (Sep 26, 4:51 PM)29.76 "Hg (Sep 28, 3:51 AM)
Average73 °F64%30.02 "Hg
* Reported Sep 16 7:01 AM — Oct 1 7:51 AM, St. Louis, Weather by CustomWeather, © 2016

Note: Actual official high and low records may vary slightly from our data, if they occured in-between our weather recording intervals... More about our weather records

Advertising

St. Louis Weather History for the Previous 24 Hours

Scroll right to see more
 ConditionsComfort  
Time TempWeatherWind HumidityBarometerVisibility
7:51 AM
Sat, Oct 1
63 °FMostly cloudy.6 mph87%30.04 "Hg7 mi
6:51 AM63 °FMostly cloudy.7 mph87%30.03 "Hg8 mi
5:51 AM63 °FLow clouds.7 mph87%30.02 "Hg8 mi
4:51 AM63 °FLow clouds.8 mph87%30.01 "Hg8 mi
3:51 AM63 °FLow clouds.7 mph87%30.01 "Hg8 mi
3:04 AM63 °FMostly cloudy.7 mph87%30.02 "Hg9 mi
2:51 AM63 °FMostly cloudy.7 mph87%30.01 "Hg10 mi
1:51 AM63 °FMostly cloudy.7 mph87%30.02 "Hg10 mi
12:51 AM63 °FMostly cloudy.7 mph87%30.02 "Hg10 mi
11:51 PM
Fri, Sep 30
63 °FMostly cloudy.7 mph87%30.03 "Hg10 mi
10:51 PM63 °FLight rain. Fog.9 mph87%30.03 "Hg6 mi
9:51 PM64 °FLight rain. Mostly cloudy.9 mph81%30.04 "Hg7 mi
8:51 PM64 °FPassing clouds.8 mph84%30.04 "Hg10 mi
7:51 PM64 °FPassing clouds.8 mph84%30.04 "Hg9 mi
6:51 PM65 °FLight rain. Partly cloudy.10 mph81%30.04 "Hg7 mi
5:51 PM66 °FBroken clouds.10 mph78%30.03 "Hg10 mi
4:51 PM66 °FBroken clouds.10 mph78%30.03 "Hg10 mi
4:01 PM66 °FPartly sunny.8 mph81%30.06 "Hg10 mi
1:51 PM67 °FMostly cloudy.12 mph68%30.07 "Hg10 mi
12:51 PM67 °FBroken clouds.7 mph71%30.09 "Hg10 mi
11:51 AM68 °FPartly sunny.14 mph68%30.10 "Hg10 mi
10:51 AM65 °FOvercast.15 mph73%30.10 "Hg10 mi
9:51 AM64 °FMostly cloudy.10 mph75%30.10 "Hg10 mi
8:51 AM62 °FMostly cloudy.9 mph80%30.11 "Hg10 mi
Weather by CustomWeather, © 2016

See weather overviewHow to use our weather pages